Time,TemperatureF,DewpointF,PressureIn,WindDirection,WindDirectionDegrees,WindSpeedMPH,WindSpeedGustMPH,Humidity,HourlyPrecipIn,Conditions,Clouds,dailyrainin,SoftwareType,DateUTC
2013-09-28 00:02:00,45.3,34.6,30.01,NNW,330,0.0,0.0,66,0.00,,,0.00,Wunderground v.1.15,2013-09-28 06:02:00,
2013-09-28 00:12:00,45.0,35.1,30.01,NNW,330,0.0,0.0,68,0.00,,,0.00,Wunderground v.1.15,2013-09-28 06:12:00,
2013-09-28 00:22:00,44.9,35.0,30.02,NNW,329,0.0,0.0,68,0.00,,,0.00,Wunderground v.1.15,2013-09-28 06:22:00,
2013-09-28 00:32:00,44.1,34.9,30.02,NNW,329,0.0,0.0,70,0.00,,,0.00,Wunderground v.1.15,2013-09-28 06:32:00,
2013-09-28 00:37:00,43.8,35.0,30.02,NNW,329,0.0,0.0,71,0.00,,,0.00,Wunderground v.1.15,2013-09-28 06:37:00,
2013-09-28 00:47:00,43.5,34.7,30.03,NNW,329,0.0,0.0,71,0.00,,,0.00,Wunderground v.1.15,2013-09-28 06:47:00,
2013-09-28 00:57:00,43.3,34.9,30.03,NNW,329,0.0,0.0,72,0.00,,,0.00,Wunderground v.1.15,2013-09-28 06:57:00,
2013-09-28 01:02:00,43.2,34.4,30.03,NNW,329,0.0,0.0,71,0.00,,,0.00,Wunderground v.1.15,2013-09-28 07:02:00,
2013-09-28 01:12:00,42.8,34.4,30.03,NNW,329,0.0,0.0,72,0.00,,,0.00,Wunderground v.1.15,2013-09-28 07:12:00,
2013-09-28 01:22:00,42.1,34.1,30.03,NNW,329,0.0,0.0,73,0.00,,,0.00,Wunderground v.1.15,2013-09-28 07:22:00,
2013-09-28 01:32:00,41.2,33.9,30.04,NNW,329,0.0,0.0,75,0.00,,,0.00,Wunderground v.1.15,2013-09-28 07:32:00,
2013-09-28 01:42:00,41.0,33.3,30.04,NNW,329,0.0,0.0,74,0.00,,,0.00,Wunderground v.1.15,2013-09-28 07:42:00,
2013-09-28 01:52:00,42.3,32.8,30.05,NNW,342,0.0,0.0,69,0.00,,,0.00,Wunderground v.1.15,2013-09-28 07:52:00,
2013-09-28 02:02:00,43.4,31.6,30.05,North,359,0.0,1.0,63,0.00,,,0.00,Wunderground v.1.15,2013-09-28 08:02:00,
2013-09-28 02:12:00,43.7,30.7,30.06,North,353,0.0,0.0,60,0.00,,,0.00,Wunderground v.1.15,2013-09-28 08:12:00,
2013-09-28 02:22:00,43.7,30.7,30.06,NNW,344,0.0,1.0,60,0.00,,,0.00,Wunderground v.1.15,2013-09-28 08:22:00,
2013-09-28 02:27:00,43.7,30.3,30.06,NW,311,0.0,1.0,59,0.00,,,0.00,Wunderground v.1.15,2013-09-28 08:27:00,
2013-09-28 02:37:00,43.6,30.2,30.07,North,349,0.0,0.0,59,0.00,,,0.00,Wunderground v.1.15,2013-09-28 08:37:00,
2013-09-28 02:42:00,43.6,29.8,30.06,NW,311,1.0,2.0,58,0.00,,,0.00,Wunderground v.1.15,2013-09-28 08:42:00,
2013-09-28 02:52:00,43.7,29.0,30.06,NNW,345,0.0,0.0,56,0.00,,,0.00,Wunderground v.1.15,2013-09-28 08:52:00,
2013-09-28 03:02:00,43.4,29.2,30.06,WNW,294,0.0,0.0,57,0.00,,,0.00,Wunderground v.1.15,2013-09-28 09:02:00,
2013-09-28 03:12:00,43.1,28.9,30.07,NNW,329,0.0,0.0,57,0.00,,,0.00,Wunderground v.1.15,2013-09-28 09:12:00,
2013-09-28 03:22:00,42.5,28.8,30.08,NNW,329,0.0,0.0,58,0.00,,,0.00,Wunderground v.1.15,2013-09-28 09:22:00,
2013-09-28 03:27:00,42.2,28.9,30.08,NNW,329,0.0,0.0,59,0.00,,,0.00,Wunderground v.1.15,2013-09-28 09:27:00,
2013-09-28 03:37:00,42.4,28.7,30.08,NW,314,0.0,0.0,58,0.00,,,0.00,Wunderground v.1.15,2013-09-28 09:37:00,
2013-09-28 03:47:00,42.7,28.5,30.09,North,5,0.0,0.0,57,0.00,,,0.00,Wunderground v.1.15,2013-09-28 09:47:00,
2013-09-28 03:57:00,43.2,28.5,30.09,NNW,347,1.0,1.0,56,0.00,,,0.00,Wunderground v.1.15,2013-09-28 09:57:00,
2013-09-28 04:02:00,43.3,28.2,30.09,NNW,347,1.0,1.0,55,0.00,,,0.00,Wunderground v.1.15,2013-09-28 10:02:00,
2013-09-28 04:12:00,43.3,28.2,30.10,NNW,335,1.0,1.0,55,0.00,,,0.00,Wunderground v.1.15,2013-09-28 10:12:00,
2013-09-28 04:22:00,43.3,28.2,30.10,NW,315,1.0,1.0,55,0.00,,,0.00,Wunderground v.1.15,2013-09-28 10:22:00,
2013-09-28 04:32:00,43.1,28.5,30.11,NNW,330,0.0,0.0,56,0.00,,,0.00,Wunderground v.1.15,2013-09-28 10:32:00,
2013-09-28 04:42:00,42.8,27.7,30.11,NNW,335,0.0,0.0,55,0.00,,,0.00,Wunderground v.1.15,2013-09-28 10:42:00,
2013-09-28 04:52:00,43.1,27.6,30.12,North,3,2.0,3.0,54,0.00,,,0.00,Wunderground v.1.15,2013-09-28 10:52:00,
2013-09-28 05:02:00,43.4,27.8,30.12,NNE,20,2.0,2.0,54,0.00,,,0.00,Wunderground v.1.15,2013-09-28 11:02:00,
2013-09-28 05:12:00,43.3,27.8,30.13,North,9,1.0,1.0,54,0.00,,,0.00,Wunderground v.1.15,2013-09-28 11:12:00,
2013-09-28 05:22:00,42.4,27.8,30.13,North,6,0.0,0.0,56,0.00,,,0.00,Wunderground v.1.15,2013-09-28 11:22:00,
2013-09-28 05:32:00,41.5,27.8,30.14,North,5,0.0,0.0,58,0.00,,,0.00,Wunderground v.1.15,2013-09-28 11:32:00,
2013-09-28 05:42:00,40.6,28.2,30.15,North,6,0.0,0.0,61,0.00,,,0.00,Wunderground v.1.15,2013-09-28 11:42:00,
2013-09-28 05:52:00,39.7,28.5,30.15,North,359,0.0,0.0,64,0.00,,,0.00,Wunderground v.1.15,2013-09-28 11:52:00,
2013-09-28 06:02:00,38.9,28.5,30.15,North,360,0.0,0.0,66,0.00,,,0.00,Wunderground v.1.15,2013-09-28 12:02:00,
2013-09-28 06:12:00,38.7,29.0,30.16,ESE,121,0.0,0.0,68,0.00,,,0.00,Wunderground v.1.15,2013-09-28 12:12:00,
2013-09-28 06:17:00,38.5,28.9,30.17,ESE,121,0.0,0.0,68,0.00,,,0.00,Wunderground v.1.15,2013-09-28 12:17:00,
2013-09-28 06:27:00,38.0,28.7,30.17,ESE,121,0.0,0.0,69,0.00,,,0.00,Wunderground v.1.15,2013-09-28 12:27:00,
2013-09-28 06:37:00,37.2,29.0,30.17,ESE,121,0.0,0.0,72,0.00,,,0.00,Wunderground v.1.15,2013-09-28 12:37:00,
2013-09-28 06:47:00,36.7,28.9,30.18,ESE,121,0.0,0.0,73,0.00,,,0.00,Wunderground v.1.15,2013-09-28 12:47:00,
2013-09-28 06:57:00,36.2,28.4,30.19,ESE,121,0.0,0.0,73,0.00,,,0.00,Wunderground v.1.15,2013-09-28 12:57:00,
2013-09-28 07:02:00,35.7,28.2,30.19,ESE,121,0.0,0.0,74,0.00,,,0.00,Wunderground v.1.15,2013-09-28 13:02:00,
2013-09-28 07:12:00,36.0,28.8,30.20,ESE,121,0.0,0.0,75,0.00,,,0.00,Wunderground v.1.15,2013-09-28 13:12:00,
2013-09-28 07:22:00,36.7,29.5,30.21,ESE,121,0.0,0.0,75,0.00,,,0.00,Wunderground v.1.15,2013-09-28 13:22:00,
2013-09-28 07:32:00,37.0,30.1,30.21,ESE,121,0.0,0.0,76,0.00,,,0.00,Wunderground v.1.15,2013-09-28 13:32:00,
2013-09-28 07:42:00,38.3,29.7,30.22,SE,128,0.0,0.0,71,0.00,,,0.00,Wunderground v.1.15,2013-09-28 13:42:00,
2013-09-28 07:52:00,39.7,29.6,30.23,SE,128,0.0,0.0,67,0.00,,,0.00,Wunderground v.1.15,2013-09-28 13:52:00,
2013-09-28 08:02:00,40.4,29.6,30.23,SE,128,0.0,0.0,65,0.00,,,0.00,Wunderground v.1.15,2013-09-28 14:02:00,
2013-09-28 08:12:00,41.5,28.2,30.24,NNE,15,0.0,0.0,59,0.00,,,0.00,Wunderground v.1.15,2013-09-28 14:12:00,
2013-09-28 08:17:00,42.4,28.7,30.24,North,8,1.0,1.0,58,0.00,,,0.00,Wunderground v.1.15,2013-09-28 14:17:00,
2013-09-28 08:27:00,43.3,28.2,30.24,North,360,1.0,2.0,55,0.00,,,0.00,Wunderground v.1.15,2013-09-28 14:27:00,
2013-09-28 08:37:00,43.9,28.3,30.24,NNW,337,1.0,1.0,54,0.00,,,0.00,Wunderground v.1.15,2013-09-28 14:37:00,
2013-09-28 08:47:00,44.5,27.5,30.25,NNW,338,1.0,2.0,51,0.00,,,0.00,Wunderground v.1.15,2013-09-28 14:47:00,
2013-09-28 08:57:00,45.5,28.4,30.25,NNW,336,3.0,5.0,51,0.00,,,0.00,Wunderground v.1.15,2013-09-28 14:57:00,
2013-09-28 09:02:00,45.9,28.3,30.25,NNW,330,4.0,4.0,50,0.00,,,0.00,Wunderground v.1.15,2013-09-28 15:02:00,
2013-09-28 09:12:00,46.7,28.0,30.26,NNE,22,2.0,2.0,48,0.00,,,0.00,Wunderground v.1.15,2013-09-28 15:12:00,
2013-09-28 09:22:00,46.9,27.7,30.26,North,352,2.0,2.0,47,0.00,,,0.00,Wunderground v.1.15,2013-09-28 15:22:00,
2013-09-28 09:32:00,47.9,28.6,30.27,SSE,149,1.0,1.0,47,0.00,,,0.00,Wunderground v.1.15,2013-09-28 15:32:00,
2013-09-28 09:42:00,49.5,29.0,30.27,NNW,346,0.0,1.0,45,0.00,,,0.00,Wunderground v.1.15,2013-09-28 15:42:00,
2013-09-28 09:52:00,50.1,29.0,30.27,West,271,0.0,1.0,44,0.00,,,0.00,Wunderground v.1.15,2013-09-28 15:52:00,
2013-09-28 10:02:00,51.7,29.9,30.27,NNW,342,0.0,1.0,43,0.00,,,0.00,Wunderground v.1.15,2013-09-28 16:02:00,
2013-09-28 10:12:00,52.4,30.5,30.28,West,279,1.0,1.0,43,0.00,,,0.00,Wunderground v.1.15,2013-09-28 16:12:00,
2013-09-28 10:17:00,53.3,30.8,30.28,SSW,198,1.0,1.0,42,0.00,,,0.00,Wunderground v.1.15,2013-09-28 16:17:00,
2013-09-28 10:27:00,54.3,29.8,30.28,SE,136,2.0,2.0,39,0.00,,,0.00,Wunderground v.1.15,2013-09-28 16:27:00,
2013-09-28 10:37:00,54.9,30.4,30.28,SSW,198,1.0,1.0,39,0.00,,,0.00,Wunderground v.1.15,2013-09-28 16:37:00,
2013-09-28 10:47:00,55.9,29.3,30.27,SW,217,1.0,2.0,36,0.00,,,0.00,Wunderground v.1.15,2013-09-28 16:47:00,
2013-09-28 10:52:00,56.0,28.7,30.27,NW,318,2.0,4.0,35,0.00,,,0.00,Wunderground v.1.15,2013-09-28 16:52:00,
2013-09-28 11:02:00,56.8,27.2,30.28,NNW,335,2.0,2.0,32,0.00,,,0.00,Wunderground v.1.15,2013-09-28 17:02:00,
2013-09-28 11:12:00,57.2,26.8,30.27,NNW,329,4.0,4.0,31,0.00,,,0.00,Wunderground v.1.15,2013-09-28 17:12:00,
2013-09-28 11:22:00,57.8,26.5,30.27,NNW,330,3.0,6.0,30,0.00,,,0.00,Wunderground v.1.15,2013-09-28 17:22:00,
2013-09-28 11:32:00,58.5,26.3,30.27,NNW,335,3.0,4.0,29,0.00,,,0.00,Wunderground v.1.15,2013-09-28 17:32:00,
2013-09-28 11:42:00,59.4,25.4,30.27,NW,312,3.0,7.0,27,0.00,,,0.00,Wunderground v.1.15,2013-09-28 17:42:00,
2013-09-28 11:52:00,60.0,25.0,30.27,NNW,333,4.0,4.0,26,0.00,,,0.00,Wunderground v.1.15,2013-09-28 17:52:00,
2013-09-28 12:02:00,60.1,25.1,30.27,NNW,338,5.0,5.0,26,0.00,,,0.00,Wunderground v.1.15,2013-09-28 18:02:00,
2013-09-28 12:12:00,59.9,23.9,30.27,NW,326,6.0,6.0,25,0.00,,,0.00,Wunderground v.1.15,2013-09-28 18:12:00,
2013-09-28 12:22:00,59.9,23.0,30.28,NW,312,7.0,9.0,24,0.00,,,0.00,Wunderground v.1.15,2013-09-28 18:22:00,
2013-09-28 12:32:00,60.5,22.5,30.27,WNW,301,5.0,5.0,23,0.00,,,0.00,Wunderground v.1.15,2013-09-28 18:32:00,
2013-09-28 12:42:00,60.9,22.8,30.27,WNW,293,5.0,5.0,23,0.00,,,0.00,Wunderground v.1.15,2013-09-28 18:42:00,
2013-09-28 12:52:00,60.8,22.7,30.27,NW,309,4.0,6.0,23,0.00,,,0.00,Wunderground v.1.15,2013-09-28 18:52:00,
2013-09-28 12:57:00,61.3,21.0,30.27,NNE,19,4.0,8.0,21,0.00,,,0.00,Wunderground v.1.15,2013-09-28 18:57:00,
2013-09-28 13:02:00,61.1,21.9,30.27,NW,323,3.0,5.0,22,0.00,,,0.00,Wunderground v.1.15,2013-09-28 19:02:00,
2013-09-28 13:12:00,61.6,20.1,30.27,NNE,19,4.0,5.0,20,0.00,,,0.00,Wunderground v.1.15,2013-09-28 19:12:00,
2013-09-28 13:22:00,62.6,20.9,30.27,WNW,285,3.0,3.0,20,0.00,,,0.00,Wunderground v.1.15,2013-09-28 19:22:00,
2013-09-28 13:32:00,62.5,19.6,30.26,NW,323,3.0,3.0,19,0.00,,,0.00,Wunderground v.1.15,2013-09-28 19:32:00,
2013-09-28 13:42:00,63.0,21.2,30.26,NNW,344,2.0,4.0,20,0.00,,,0.00,Wunderground v.1.15,2013-09-28 19:42:00,
2013-09-28 13:47:00,63.6,20.5,30.26,NW,323,2.0,4.0,19,0.00,,,0.00,Wunderground v.1.15,2013-09-28 19:47:00,
2013-09-28 13:57:00,63.4,19.1,30.25,NNW,340,3.0,3.0,18,0.00,,,0.00,Wunderground v.1.15,2013-09-28 19:57:00,
2013-09-28 14:02:00,63.6,21.7,30.25,NW,319,2.0,2.0,20,0.00,,,0.00,Wunderground v.1.15,2013-09-28 20:02:00,
2013-09-28 14:12:00,63.6,20.5,30.25,North,353,4.0,4.0,19,0.00,,,0.00,Wunderground v.1.15,2013-09-28 20:12:00,
2013-09-28 14:22:00,64.1,19.7,30.24,North,352,4.0,4.0,18,0.00,,,0.00,Wunderground v.1.15,2013-09-28 20:22:00,
2013-09-28 14:32:00,64.6,21.4,30.24,SE,125,3.0,3.0,19,0.00,,,0.00,Wunderground v.1.15,2013-09-28 20:32:00,
2013-09-28 14:42:00,66.2,23.9,30.23,NE,44,1.0,1.0,20,0.00,,,0.00,Wunderground v.1.15,2013-09-28 20:42:00,
2013-09-28 14:52:00,65.8,21.1,30.23,NNW,333,3.0,4.0,18,0.00,,,0.00,Wunderground v.1.15,2013-09-28 20:52:00,
2013-09-28 15:02:00,65.3,21.9,30.23,ESE,107,2.0,2.0,19,0.00,,,0.00,Wunderground v.1.15,2013-09-28 21:02:00,
2013-09-28 15:12:00,65.5,20.8,30.23,NW,325,2.0,2.0,18,0.00,,,0.00,Wunderground v.1.15,2013-09-28 21:12:00,
2013-09-28 15:22:00,66.2,21.4,30.23,NE,41,2.0,2.0,18,0.00,,,0.00,Wunderground v.1.15,2013-09-28 21:22:00,
2013-09-28 15:32:00,66.9,22.0,30.23,WNW,301,2.0,2.0,18,0.00,,,0.00,Wunderground v.1.15,2013-09-28 21:32:00,
2013-09-28 15:42:00,66.4,20.2,30.22,North,353,3.0,3.0,17,0.00,,,0.00,Wunderground v.1.15,2013-09-28 21:42:00,
2013-09-28 15:52:00,67.7,23.9,30.22,SE,125,1.0,1.0,19,0.00,,,0.00,Wunderground v.1.15,2013-09-28 21:52:00,
2013-09-28 16:02:00,68.8,20.7,30.22,North,4,1.0,3.0,16,0.00,,,0.00,Wunderground v.1.15,2013-09-28 22:02:00,
2013-09-28 16:12:00,69.0,20.9,30.22,SE,125,1.0,1.0,16,0.00,,,0.00,Wunderground v.1.15,2013-09-28 22:12:00,
2013-09-28 16:22:00,69.6,22.8,30.22,SSW,201,1.0,1.0,17,0.00,,,0.00,Wunderground v.1.15,2013-09-28 22:22:00,
2013-09-28 16:32:00,69.2,22.5,30.22,West,277,2.0,2.0,17,0.00,,,0.00,Wunderground v.1.15,2013-09-28 22:32:00,
2013-09-28 16:42:00,69.8,23.0,30.22,WNW,284,1.0,1.0,17,0.00,,,0.00,Wunderground v.1.15,2013-09-28 22:42:00,
2013-09-28 16:52:00,68.2,21.7,30.22,West,260,2.0,2.0,17,0.00,,,0.00,Wunderground v.1.15,2013-09-28 22:52:00,
2013-09-28 17:02:00,69.2,21.1,30.22,SE,129,1.0,1.0,16,0.00,,,0.00,Wunderground v.1.15,2013-09-28 23:02:00,
2013-09-28 17:12:00,68.3,18.8,30.22,NNW,342,2.0,3.0,15,0.00,,,0.00,Wunderground v.1.15,2013-09-28 23:12:00,
2013-09-28 17:22:00,67.7,18.3,30.22,NNE,13,3.0,4.0,15,0.00,,,0.00,Wunderground v.1.15,2013-09-28 23:22:00,
2013-09-28 17:32:00,67.9,16.9,30.22,North,359,2.0,2.0,14,0.00,,,0.00,Wunderground v.1.15,2013-09-28 23:32:00,
2013-09-28 17:37:00,68.6,19.1,30.22,WSW,239,1.0,2.0,15,0.00,,,0.00,Wunderground v.1.15,2013-09-28 23:37:00,
2013-09-28 17:42:00,68.8,17.6,30.22,WNW,293,0.0,0.0,14,0.00,,,0.00,Wunderground v.1.15,2013-09-28 23:42:00,
2013-09-28 17:52:00,69.0,16.0,30.22,WSW,243,0.0,1.0,13,0.00,,,0.00,Wunderground v.1.15,2013-09-28 23:52:00,
2013-09-28 18:02:00,69.9,16.8,30.22,SSW,205,0.0,0.0,13,0.00,,,0.00,Wunderground v.1.15,2013-09-29 00:02:00,
2013-09-28 18:12:00,70.6,17.3,30.22,SE,139,0.0,0.0,13,0.00,,,0.00,Wunderground v.1.15,2013-09-29 00:12:00,
2013-09-28 18:22:00,70.3,15.2,30.22,NNE,23,0.0,2.0,12,0.00,,,0.00,Wunderground v.1.15,2013-09-29 00:22:00,
2013-09-28 18:32:00,69.5,18.2,30.22,NNE,26,0.0,0.0,14,0.00,,,0.00,Wunderground v.1.15,2013-09-29 00:32:00,
2013-09-28 18:42:00,68.1,24.2,30.22,NNE,26,0.0,0.0,19,0.00,,,0.00,Wunderground v.1.15,2013-09-29 00:42:00,
2013-09-28 18:52:00,65.0,22.9,30.22,NNE,26,0.0,0.0,20,0.00,,,0.00,Wunderground v.1.15,2013-09-29 00:52:00,
2013-09-28 19:02:00,62.4,25.1,30.22,NNE,25,0.0,0.0,24,0.00,,,0.00,Wunderground v.1.15,2013-09-29 01:02:00,
2013-09-28 19:12:00,60.3,27.9,30.22,NNE,25,0.0,0.0,29,0.00,,,0.00,Wunderground v.1.15,2013-09-29 01:12:00,
2013-09-28 19:22:00,58.4,29.4,30.22,NNE,25,0.0,0.0,33,0.00,,,0.00,Wunderground v.1.15,2013-09-29 01:22:00,
2013-09-28 19:27:00,57.4,27.0,30.22,NNE,25,0.0,0.0,31,0.00,,,0.00,Wunderground v.1.15,2013-09-29 01:27:00,
2013-09-28 19:37:00,56.2,28.9,30.22,NNE,25,0.0,0.0,35,0.00,,,0.00,Wunderground v.1.15,2013-09-29 01:37:00,
2013-09-28 19:47:00,55.6,28.4,30.22,NNE,25,0.0,0.0,35,0.00,,,0.00,Wunderground v.1.15,2013-09-29 01:47:00,
2013-09-28 19:57:00,55.6,29.7,30.23,NNE,25,0.0,0.0,37,0.00,,,0.00,Wunderground v.1.15,2013-09-29 01:57:00,
2013-09-28 20:02:00,55.3,30.1,30.23,NNE,25,0.0,0.0,38,0.00,,,0.00,Wunderground v.1.15,2013-09-29 02:02:00,
2013-09-28 20:12:00,54.8,27.6,30.23,NNE,25,0.0,0.0,35,0.00,,,0.00,Wunderground v.1.15,2013-09-29 02:12:00,
2013-09-28 20:22:00,54.7,26.8,30.23,NNE,25,0.0,0.0,34,0.00,,,0.00,Wunderground v.1.15,2013-09-29 02:22:00,
2013-09-28 20:32:00,55.3,27.4,30.24,NE,43,1.0,1.0,34,0.00,,,0.00,Wunderground v.1.15,2013-09-29 02:32:00,
2013-09-28 20:37:00,55.6,27.6,30.24,North,8,1.0,1.0,34,0.00,,,0.00,Wunderground v.1.15,2013-09-29 02:37:00,
2013-09-28 20:42:00,55.3,28.8,30.24,North,8,0.0,0.0,36,0.00,,,0.00,Wunderground v.1.15,2013-09-29 02:42:00,
2013-09-28 20:52:00,54.3,27.9,30.25,SE,146,0.0,0.0,36,0.00,,,0.00,Wunderground v.1.15,2013-09-29 02:52:00,
2013-09-28 21:02:00,53.7,27.4,30.25,SE,141,0.0,0.0,36,0.00,,,0.00,Wunderground v.1.15,2013-09-29 03:02:00,
2013-09-28 21:12:00,53.6,27.3,30.25,SE,141,0.0,0.0,36,0.00,,,0.00,Wunderground v.1.15,2013-09-29 03:12:00,
2013-09-28 21:22:00,53.4,26.4,30.25,SE,141,0.0,0.0,35,0.00,,,0.00,Wunderground v.1.15,2013-09-29 03:22:00,
2013-09-28 21:27:00,53.4,25.7,30.25,SE,141,0.0,0.0,34,0.00,,,0.00,Wunderground v.1.15,2013-09-29 03:27:00,
2013-09-28 21:37:00,53.1,26.1,30.25,SE,141,0.0,0.0,35,0.00,,,0.00,Wunderground v.1.15,2013-09-29 03:37:00,
2013-09-28 21:42:00,52.9,26.0,30.25,SE,141,0.0,0.0,35,0.00,,,0.00,Wunderground v.1.15,2013-09-29 03:42:00,
2013-09-28 21:52:00,52.7,25.8,30.25,SE,141,0.0,0.0,35,0.00,,,0.00,Wunderground v.1.15,2013-09-29 03:52:00,
2013-09-28 21:57:00,52.7,25.8,30.25,SE,141,0.0,0.0,35,0.00,,,0.00,Wunderground v.1.15,2013-09-29 03:57:00,
2013-09-28 22:02:00,52.7,26.5,30.26,SE,141,0.0,0.0,36,0.00,,,0.00,Wunderground v.1.15,2013-09-29 04:02:00,
2013-09-28 22:07:00,52.5,26.3,30.25,SE,141,0.0,0.0,36,0.00,,,0.00,Wunderground v.1.15,2013-09-29 04:07:00,
2013-09-28 22:12:00,52.2,26.7,30.25,SE,141,0.0,0.0,37,0.00,,,0.00,Wunderground v.1.15,2013-09-29 04:12:00,
2013-09-28 22:22:00,51.7,27.5,30.26,SE,141,0.0,0.0,39,0.00,,,0.00,Wunderground v.1.15,2013-09-29 04:22:00,
2013-09-28 22:32:00,50.5,27.0,30.25,SE,141,0.0,0.0,40,0.00,,,0.00,Wunderground v.1.15,2013-09-29 04:32:00,
2013-09-28 22:37:00,50.3,28.1,30.25,SE,141,0.0,0.0,42,0.00,,,0.00,Wunderground v.1.15,2013-09-29 04:37:00,
2013-09-28 22:47:00,50.2,28.5,30.26,SE,141,0.0,0.0,43,0.00,,,0.00,Wunderground v.1.15,2013-09-29 04:47:00,
2013-09-28 22:57:00,49.9,27.7,30.26,SE,141,0.0,0.0,42,0.00,,,0.00,Wunderground v.1.15,2013-09-29 04:57:00,
2013-09-28 23:02:00,49.8,25.8,30.26,SE,141,0.0,0.0,39,0.00,,,0.00,Wunderground v.1.15,2013-09-29 05:02:00,
2013-09-28 23:12:00,49.9,28.3,30.26,SE,141,0.0,0.0,43,0.00,,,0.00,Wunderground v.1.15,2013-09-29 05:12:00,
2013-09-28 23:22:00,49.5,27.9,30.26,SE,141,0.0,0.0,43,0.00,,,0.00,Wunderground v.1.15,2013-09-29 05:22:00,
2013-09-28 23:27:00,49.2,28.2,30.26,SE,141,0.0,0.0,44,0.00,,,0.00,Wunderground v.1.15,2013-09-29 05:27:00,
2013-09-28 23:37:00,48.3,29.0,30.27,SE,141,0.0,0.0,47,0.00,,,0.00,Wunderground v.1.15,2013-09-29 05:37:00,
2013-09-28 23:47:00,48.0,28.7,30.27,SE,141,0.0,0.0,47,0.00,,,0.00,Wunderground v.1.15,2013-09-29 05:47:00,
2013-09-28 23:52:00,47.7,28.9,30.27,SE,141,0.0,0.0,48,0.00,,,0.00,Wunderground v.1.15,2013-09-29 05:52:00,